Regional Weather Roundup
Issued by NWS Glasgow, MT

Home | Current Version | Previous Version | Text Only | Print | Product List | Glossary On
Versions: 1 2 3 4 5 6 7 8 9 10 11 12 13 14 15 16 17 18 19 20 21 22 23 24 25 26
000
ASUS45 KGGW 121615
RWRGGW
HOURLY REGIONAL WEATHER ROUNDUP FOR NORTHEAST MONTANA
NATIONAL WEATHER SERVICE GLASGOW MONTANA
900 AM MST TUE DEC 12 2017

NOTE: "FAIR" INDICATES FEW OR NO CLOUDS BELOW 12,000 FEET WITH NO
SIGNIFICANT WEATHER AND/OR OBSTRUCTIONS TO VISISBILITY.

NORTHEAST MONTANA


CITY           SKY/WX    TMP DP  RH WIND       PRES   REMARKS
GLASGOW        CLOUDY    25  21  85 SW3       30.03F
PLENTYWOOD       N/A     32  22  66 NE3         N/A
WOLF POINT     CLOUDY    27  22  81 W12       30.03F
JORDAN           N/A     32  23  69 W7        30.06
WINNETT          N/A     32  24  72 SW2         N/A
SIDNEY         CLEAR     27  24  89 S10       30.02F
GLENDIVE       CLEAR     28  24  85 S12       30.06F
MALTA            N/A     24  21  88 NW2         N/A
SCOBEY           N/A     31  19  61 CALM      29.94F

FORT PECK REPORTS


CITY           SKY/WX    TMP DP  RH WIND       PRES   REMARKS
FORT PECK        N/A     33  24  69 E5          N/A

SOUTHEAST MONTANA


CITY           SKY/WX    TMP DP  RH WIND       PRES   REMARKS
BILLINGS       CLOUDY    43  18  36 SW29G36   30.19F
MILES CITY     CLEAR     28  21  75 S8        30.11F
BAKER          SUNNY     35  24  64 W12       30.09F
LIVINGSTON     CLOUDY    46  12  25 SW35G44   30.29S

CENTRAL MONTANA


CITY           SKY/WX    TMP DP  RH WIND       PRES   REMARKS
HAVRE          CLOUDY    38  13  35 SW20      30.06S
LEWISTOWN      CLOUDY    43  16  33 SW15      30.16S
GREAT FALLS    CLOUDY    46   3  17 SW20      30.15S
CUT BANK       MOCLDY    49  -2  12 W26G43    30.13R
HELENA         CLOUDY    13  11  92 W6        30.39R FOG
BUTTE          CLOUDY     6   0  76 S6        30.42F
BOZEMAN        CLOUDY    12   7  80 S3        30.39F

WESTERN MONTANA


CITY           SKY/WX    TMP DP  RH WIND       PRES   REMARKS
MISSOULA       FOG       18  15  88 CALM      30.55R VSB 1/4
KALISPELL      NOT AVBL

NORTH DAKOTA


CITY           SKY/WX    TMP DP  RH WIND       PRES   REMARKS
WILLISTON      CLEAR     29  24  82 SW8       30.01F
DICKINSON      SUNNY     36  24  62 W16       30.00F
MINOT          CLOUDY    36  24  62 SW14      29.92F
BISMARCK       CLOUDY    30  26  85 SW3       30.02F

SOUTHERN SASKATCHEWAN


CITY           SKY/WX    TMP DP  RH WIND       PRES   REMARKS
REGINA         CLEAR     28  23  80 SW5       29.85F
MOOSE JAW      PTCLDY    41  25  52 W13       29.87F
ESTEVAN        PTCLDY    30  23  74 SW12      29.91F
SWIFT CURRENT  CLEAR     41  16  36 W20       29.89F





USA.gov is the U.S. government's official web portal to all federal, state and local government web resources and services.